sat.trackr.live / text

‹ back to catalog

STARLINK-36471

NORAD 67324 · 2026-002V

PAYLOAD ACTIVE UNKNOWN

§ Identity

Operator
Country
US
Launch date
2026-01-04
Launch site
AFETR
Launch vehicle
Mass (kg)
RCS (m²)

Purposes: comms

External: N2YO · Heavens-Above · Gunter

§ Orbital elements

Epoch: 2026-05-25T00:19:22.941408Z

Period
94.27 min
Inclination
43.0018°
Eccentricity
0.0001060
Mean motion
15.27584920 rev/d
Perigee alt
482.3 km
Apogee alt
483.8 km
Semi-major
6,861.2 km
B*
6.7467e-4
RAAN
254.0567°
Arg perigee
277.8040°
Mean anomaly
82.2691°
Rev number
2,275

§ Raw data

STARLINK-364711 67324U 26002V   26145.01345997  .00018352  00000+0  67467-3 0  99992 67324  43.0018 254.0567 0001060 277.8040  82.2691 15.27584920 22751

JSON: /api/v1/satellites/67324 · /tle

For live sub-satellite position, see the globe view (requires WebGL).

§ Visibility from observer

Set your observer location to see the next 7 days of passes ≥ 10°. The values pass through the URL so the page stays shareable.

No JS? Fill the form by hand. The geolocation button needs JavaScript.